Waarnemingen

Advertentie
Mijn weer
Tjakaape, Zweden (2141): temperatuur & dauwpunt: 11.12.2017 07:00:00 - 17.12.2017 07:00:00 (CET)Tjakaape, Zweden (2141): windsnelheid & windstoten: 11.12.2017 07:00:00 - 17.12.2017 07:00:00 (CET)Tjakaape, Zweden (2141): windrichting: 11.12.2017 07:00:00 - 17.12.2017 07:00:00 (CET)Tjakaape, Zweden (2141): luchtdruk: 11.12.2017 07:00:00 - 17.12.2017 07:00:00 (CET)Tjakaape, Zweden (2141): zicht: 11.12.2017 07:00:00 - 17.12.2017 07:00:00 (CET)Tjakaape, Zweden (2141): neerslag: 11.12.2017 07:00:00 - 17.12.2017 07:00:00 (CET)
Datum & Tijd tt [°C] td [°C] ff [km/u] ff [kn] fx [km/u] fx [kn] dd ppp [hPa] vv [km] rr [mm]
17.12.2017 07:00:00 -10,2 -11,1 0 0 0 0 N 1002,6 50 -
17.12.2017 06:00:00 -11,3 -12,2 0 0 0 0 N 1002,7 50 0,0
17.12.2017 05:00:00 -11,2 -12,1 0 0 4 2 N 1002,6 50 0,0
17.12.2017 04:00:00 -13,2 -14,4 0 0 0 0 N 1002,8 50 0,0
17.12.2017 03:00:00 -14,0 -15,3 0 0 0 0 N 1003,0 17 0,0
17.12.2017 02:00:00 -14,4 -15,7 0 0 0 0 N 1003,0 25 0,0
17.12.2017 01:00:00 -16,2 -17,6 0 0 0 0 N 1003,4 50 0,0
17.12.2017 00:00:00 -20,1 -21,8 0 0 0 0 N 1004,0 40 0,0
16.12.2017 23:00:00 -19,7 -21,4 0 0 0 0 N 1004,3 45 0,0
16.12.2017 22:00:00 -18,6 -20,4 0 0 0 0 N 1004,0 50 0,0
16.12.2017 21:00:00 -19,2 -20,9 0 0 0 0 N 1004,0 50 0,0
16.12.2017 20:00:00 -18,3 -19,9 0 0 0 0 N 1004,0 3,4 0,0
16.12.2017 19:00:00 -17,0 -18,5 0 0 0 0 N 1003,7 0,7 0,0
16.12.2017 18:00:00 -16,4 -17,9 0 0 0 0 N 1003,5 0,6 0,0
16.12.2017 17:00:00 -15,7 -17,1 0 0 0 0 N 1003,3 2,3 0,0
16.12.2017 16:00:00 -14,5 -15,6 0 0 0 0 N 1002,8 1,3 0,0
16.12.2017 15:00:00 -13,4 -14,6 0 0 0 0 N 1002,4 0,6 0,1
16.12.2017 14:00:00 -11,9 -12,9 0 0 0 0 N 1001,9 1,4 0,0
16.12.2017 13:00:00 -11,3 -12,2 0 0 0 0 N 1001,7 0,6 0,0
16.12.2017 12:00:00 -10,9 -11,8 0 0 0 0 N 1001,3 0,6 0,0
16.12.2017 11:00:00 -10,4 -11,2 0 0 0 0 N 1000,9 0,5 0,0
16.12.2017 10:00:00 -10,0 -10,8 0 0 0 0 N 1000,8 0,5 0,0
16.12.2017 09:00:00 -9,4 -10,2 0 0 0 0 N 1000,2 10 0,0
16.12.2017 08:00:00 -9,0 -9,7 0 0 0 0 N 999,5 6 0,0
16.12.2017 07:00:00 -8,3 -9,0 0 0 0 0 N 999,1 45 0,0
16.12.2017 06:00:00 -8,1 -8,8 0 0 0 0 N 998,6 50 0,0
16.12.2017 05:00:00 -9,1 -9,8 0 0 0 0 N 998,6 17 0,0
16.12.2017 04:00:00 -10,0 -10,8 0 0 0 0 N 998,6 0,2 0,0
16.12.2017 03:00:00 -10,6 -11,5 0 0 0 0 N 998,4 0,4 0,0
16.12.2017 02:00:00 -10,2 -10,8 0 0 0 0 N 998,1 0,2 0,0
16.12.2017 01:00:00 -9,2 -9,9 0 0 0 0 N 997,8 0,1 0,0
16.12.2017 00:00:00 -7,9 -8,4 0 0 0 0 N 997,3 0,2 0,0
15.12.2017 23:00:00 -7,4 -7,9 0 0 0 0 N 997,0 0,5 0,0
15.12.2017 22:00:00 -7,6 -8,1 0 0 0 0 N 996,9 18 0,0
15.12.2017 21:00:00 -7,3 -7,8 0 0 0 0 N 996,6 20 0,0
15.12.2017 20:00:00 -7,6 -8,1 0 0 0 0 N 996,3 8 0,0
15.12.2017 19:00:00 -7,5 -8,0 0 0 0 0 N 996,4 3,7 0,0
15.12.2017 18:00:00 -7,2 -7,7 0 0 0 0 N 996,0 0,6 0,0
15.12.2017 17:00:00 -8,4 -9,1 0 0 0 0 N 995,9 30 0,0
15.12.2017 16:00:00 -8,4 -8,9 0 0 4 2 N 995,7 1,8 0,0
15.12.2017 15:00:00 -7,1 -7,8 0 0 4 2 N 995,3 16 0,1
15.12.2017 14:00:00 -6,5 -6,8 0 0 4 2 N 995,0 10 0,0
15.12.2017 13:00:00 -6,3 -6,7 0 0 4 2 N 994,8 2,8 0,2
15.12.2017 12:00:00 -6,3 -6,7 0 0 4 2 N 994,5 6 0,1
15.12.2017 11:00:00 -6,1 -6,5 0 0 4 2 N 994,1 5 0,1
15.12.2017 10:00:00 -6,3 -6,7 4 2 4 2 ZZO 994,1 5 0,0
15.12.2017 09:00:00 -6,5 -6,9 0 0 4 2 N 993,7 3,3 0,0
15.12.2017 08:00:00 -6,2 -6,6 0 0 4 2 N 993,1 22 0,0
15.12.2017 07:00:00 -6,3 -6,7 0 0 4 2 N 992,7 6 0,2
15.12.2017 06:00:00 -6,6 -7,0 0 0 4 2 N 992,2 4,5 0,5
15.12.2017 05:00:00 -7,3 -7,8 0 0 4 2 N 992,2 2,5 0,1
15.12.2017 04:00:00 -8,1 -8,8 0 0 4 2 N 992,0 16 0,1
15.12.2017 03:00:00 -8,2 -8,9 0 0 0 0 N 991,8 10 0,1
15.12.2017 02:00:00 -8,3 -9,0 0 0 0 0 N 991,6 2,7 0,0
15.12.2017 01:00:00 -8,5 -9,2 0 0 0 0 N 991,3 14 0,2
15.12.2017 00:00:00 -8,8 -9,5 0 0 0 0 N 991,2 6 0,1
14.12.2017 23:00:00 -9,6 -10,4 0 0 0 0 N 991,0 8 0,2
14.12.2017 22:00:00 -10,2 -11,1 0 0 0 0 N 990,9 2,4 0,3
14.12.2017 21:00:00 -9,9 -10,7 0 0 0 0 N 990,6 2,5 0,0
14.12.2017 20:00:00 -9,6 -10,2 0 0 0 0 N 990,4 7 0,1
14.12.2017 19:00:00 -9,1 -9,8 0 0 0 0 N 990,1 6 0,0
14.12.2017 18:00:00 -8,0 -8,7 0 0 0 0 N 989,7 13 0,1
14.12.2017 17:00:00 -7,6 -8,3 0 0 0 0 N 989,5 5 0,2
14.12.2017 16:00:00 -8,1 -8,8 0 0 0 0 N 989,4 1,2 0,1
14.12.2017 15:00:00 -9,9 -10,8 0 0 0 0 N 989,5 22 0,1
14.12.2017 14:00:00 -10,4 -11,4 0 0 0 0 N 989,7 2,6 0,1
14.12.2017 13:00:00 -11,9 -12,9 0 0 0 0 N 989,8 50 0,0
14.12.2017 12:00:00 -14,7 -16,0 0 0 0 0 N 989,9 45 0,0
14.12.2017 11:00:00 -15,4 -16,8 0 0 0 0 N 989,7 50 0,0
14.12.2017 10:00:00 -18,1 -19,9 0 0 0 0 N 989,6 50 0,0
14.12.2017 09:00:00 -17,2 -18,6 0 0 0 0 N 989,5 50 0,0
14.12.2017 08:00:00 -17,5 -19,1 0 0 0 0 N 988,9 50 0,0
14.12.2017 07:00:00 -18,9 -20,8 0 0 0 0 N 988,4 50 0,0
14.12.2017 06:00:00 -14,7 -16,0 0 0 0 0 N 987,7 50 0,0
14.12.2017 05:00:00 -14,1 -15,2 0 0 0 0 N 987,0 50 0,0
14.12.2017 04:00:00 -14,7 -15,8 0 0 0 0 N 986,8 50 0,0
14.12.2017 03:00:00 -15,3 -16,7 0 0 0 0 N 986,6 50 0,0
14.12.2017 02:00:00 -14,5 -15,6 0 0 0 0 N 986,2 50 0,0
14.12.2017 01:00:00 -14,1 -15,2 0 0 0 0 N 985,5 50 0,0
14.12.2017 00:00:00 -13,2 -14,4 0 0 0 0 N 984,8 50 0,0
13.12.2017 23:00:00 -14,2 -15,5 0 0 0 0 N 984,7 50 0,0
13.12.2017 22:00:00 -13,6 -14,8 0 0 0 0 N 984,3 50 0,0
13.12.2017 21:00:00 -13,6 -14,8 0 0 0 0 N 984,0 50 0,0
13.12.2017 20:00:00 -14,3 -15,6 0 0 0 0 N 984,0 50 0,0
13.12.2017 19:00:00 -15,4 -16,8 0 0 0 0 N 984,1 50 0,0
13.12.2017 18:00:00 -15,2 -16,6 0 0 0 0 N 983,6 50 0,0
13.12.2017 17:00:00 -14,6 -15,8 0 0 0 0 N 983,3 50 0,0
13.12.2017 16:00:00 -14,4 -15,6 0 0 0 0 N 983,3 50 0,0
13.12.2017 15:00:00 -15,6 -16,9 0 0 0 0 N 983,4 50 0,0
13.12.2017 14:00:00 -14,3 -15,5 0 0 0 0 N 982,8 50 0,0
13.12.2017 13:00:00 -12,7 -13,9 0 0 0 0 N 982,7 50 0,0
13.12.2017 12:00:00 -12,1 -13,1 0 0 0 0 N 982,5 45 0,0
13.12.2017 11:00:00 -12,3 -13,3 0 0 0 0 N 982,9 45 0,0
13.12.2017 10:00:00 -11,9 -12,9 0 0 0 0 N 983,0 12 0,0
13.12.2017 09:00:00 -10,1 -10,9 0 0 0 0 N 982,8 4,2 0,0
13.12.2017 08:00:00 -9,3 -10,1 0 0 0 0 N 982,8 3,3 0,1
13.12.2017 07:00:00 -8,7 -9,4 0 0 0 0 N 982,8 4,3 0,0
13.12.2017 06:00:00 -8,0 -8,7 0 0 0 0 N 983,1 2,8 0,1
13.12.2017 05:00:00 -8,0 -8,7 0 0 0 0 N 983,5 3,6 0,2
13.12.2017 04:00:00 -8,1 -8,8 0 0 0 0 N 984,0 4,3 0,1
13.12.2017 03:00:00 -8,3 -9,0 0 0 0 0 N 984,5 2,5 0,1
13.12.2017 02:00:00 -8,3 -9,0 0 0 0 0 N 985,1 2,7 0,2
13.12.2017 01:00:00 -8,2 -8,9 0 0 0 0 N 986,0 4,0 0,1
13.12.2017 00:00:00 -8,2 -8,9 0 0 0 0 N 986,7 4,0 0,0
12.12.2017 23:00:00 -8,0 -8,7 0 0 0 0 N 987,8 4,4 0,1
12.12.2017 22:00:00 -7,9 -8,6 0 0 0 0 N 988,8 4,6 0,1
12.12.2017 21:00:00 -7,8 -8,5 0 0 0 0 N 990,0 4,2 0,1
12.12.2017 20:00:00 -7,8 -8,3 0 0 0 0 N 990,9 4,9 0,0
12.12.2017 19:00:00 -7,4 -8,1 0 0 0 0 N 991,9 6 0,0
12.12.2017 18:00:00 -7,4 -7,9 0 0 0 0 N 993,0 7 0,1
12.12.2017 17:00:00 -7,0 -7,5 0 0 0 0 N 994,0 7 0,0
12.12.2017 16:00:00 -6,9 -7,4 0 0 0 0 N 994,6 7 0,0
12.12.2017 15:00:00 -6,8 -7,2 0 0 0 0 N 995,3 4,9 0,1
12.12.2017 14:00:00 -6,7 -7,2 0 0 0 0 N 995,9 9 0,1
12.12.2017 13:00:00 -6,0 -6,4 0 0 0 0 N 996,7 5 0,1
12.12.2017 12:00:00 -5,7 -6,0 0 0 0 0 N 997,5 5 0,1
12.12.2017 11:00:00 -5,6 -5,9 0 0 0 0 N 998,2 15 0,1
12.12.2017 10:00:00 -6,5 -6,9 0 0 4 2 N 998,9 5 0,0
12.12.2017 09:00:00 -6,8 -7,1 4 2 4 2 OZO 999,5 4,0 0,1
12.12.2017 08:00:00 -5,8 -6,1 0 0 4 2 N 999,5 17 0,0
12.12.2017 07:00:00 -5,7 -6,1 0 0 4 2 N 999,7 12 0,1
12.12.2017 06:00:00 -5,6 -5,9 0 0 4 2 N 1000,2 8 0,1
12.12.2017 05:00:00 -5,0 -5,3 0 0 4 2 N 1000,4 4,6 0,2
12.12.2017 04:00:00 -5,1 -5,4 0 0 4 2 N 1000,6 9 0,1
12.12.2017 03:00:00 -5,9 -6,3 0 0 4 2 N 1001,0 16 0,0
12.12.2017 02:00:00 -4,9 -5,2 0 0 4 2 N 1001,1 1,1 0,0
12.12.2017 01:00:00 -5,2 -5,5 0 0 4 2 N 1001,2 18 0,0
12.12.2017 00:00:00 -5,2 -5,5 0 0 4 2 N 1001,5 22 0,0
11.12.2017 23:00:00 -5,1 -5,4 0 0 4 2 N 1001,9 40 0,0
11.12.2017 22:00:00 -5,0 -5,3 0 0 4 2 N 1001,9 9 0,0
11.12.2017 21:00:00 -5,3 -5,6 0 0 4 2 N 1002,1 15 0,0
11.12.2017 20:00:00 -5,4 -5,8 0 0 0 0 N 1001,7 50 0,0
11.12.2017 19:00:00 -5,4 -5,8 0 0 4 2 N 1001,7 50 0,0
11.12.2017 18:00:00 -5,2 -5,5 0 0 4 2 N 1001,4 50 0,0
11.12.2017 17:00:00 -4,7 -5,0 0 0 4 2 N 1000,7 50 0,0
11.12.2017 16:00:00 -4,5 -4,8 0 0 4 2 N 1000,2 45 0,0
11.12.2017 15:00:00 -4,5 -4,8 0 0 4 2 N 999,6 45 0,0
11.12.2017 14:00:00 -4,8 -5,1 0 0 0 0 N 999,3 5 0,1
11.12.2017 13:00:00 -4,7 -5,1 0 0 4 2 N 999,0 50 0,0
11.12.2017 12:00:00 -4,3 -4,4 0 0 4 2 N 998,7 50 0,0
11.12.2017 11:00:00 -4,0 -4,3 0 0 4 2 N 998,2 27 0,0
11.12.2017 10:00:00 -4,1 -4,2 0 0 4 2 N 997,7 40 0,0
11.12.2017 09:00:00 -4,0 -4,3 0 0 4 2 N 997,1 30 0,0
11.12.2017 08:00:00 -4,0 -4,1 0 0 4 2 N 996,7 5 0,5
11.12.2017 07:00:00 -4,3 -4,4 0 0 0 0 N 996,0 2,0 0,1

tt = temperatuur
td = dauwpunt
ff = windsnelheid
fx = windstoten
dd = windrichting
ppp = luchtdruk
vv = zicht
rr = neerslag

Weerstations in de omgeving